Regional Weather Roundup
Issued by NWS

Home | Current Version | Previous Version | Graphics & Text | Print | Product List | Glossary Off
Versions: 1 2 3 4 5 6 7 8 9 10 11 12 13 14 15 16 17 18 19 20 21 22 23 24 25 26 27 28 29 30 31 32 33 34 35 36 37 38 39 40 41 42 43 44 45 46 47 48 49 50

000
ASUS43 KDTX 230801
RWRMI
MICHIGAN HOURLY REGIONAL WEATHER ROUNDUP
NATIONAL WEATHER SERVICE DETROIT/PONTIAC MI
300 AM EST SUN NOV 23 2014

NOTE: "FAIR" INDICATES FEW OR NO CLOUDS BELOW 12,000 FEET WITH NO
SIGNIFICANT WEATHER AND/OR OBSTRUCTION TO VISIBILITY.

MIZ047>049-052>055-059>063-066>070-074>076-081>083-230900-
SOUTHEAST LOWER MICHIGAN

CITY           SKY/WX    TMP DP  RH WIND       PRES   REMARKS
ADRIAN         LGT RAIN  47  41  80 SW12      29.97S
ALMA           CLOUDY    45  44  96 S6        29.87F
ANN ARBOR      CLOUDY    47  40  76 SW8       29.95R
BAD AXE        CLOUDY    45  45 100 S6        29.90R FOG
DETROIT CITY   CLOUDY    50  40  68 SW9       29.96R
DETROIT        PTCLDY    45  39  79 S8        29.97R
FLINT          CLOUDY    50  44  80 S6        29.92S
GROSSE ILE     MOCLDY    39  36  87 S10       29.96R WCI  32
HILLSDALE      CLOUDY    50  45  82 SW7       29.94S
HOWELL         CLOUDY    49  44  81 SW9       29.92S

CITY           SKY/WX    TMP DP  RH WIND       PRES   REMARKS
JACKSON        CLOUDY    51  43  74 SW13      29.93R
LAMBERTVILLE   CLOUDY    50  39  66 S3        29.98R
LANSING        CLOUDY    50  44  80 SW12      29.91S
LAPEER         PTSUNNY   46  43  88 SW8       29.92R
MASON          CLOUDY    50  44  78 SW7       29.91S
MONROE         CLOUDY    48  39  71 SW6       29.96R
MT. CLEMENS    CLOUDY    43  43  99 S8        29.93R
PONTIAC        MOCLDY    47  40  76 SW7       29.93R
PORT HOPE        N/A     47  43  86 CALM      29.88R
PORT HURON     CLOUDY    43  41  93 S8        29.94S
TRI CITIES     CLOUDY    48  44  86 S8        29.88S
TROY           CLOUDY    48  41  76 S6        29.96R
SAGINAW HB     CLOUDY    46  46 100 S8        29.88S
$$
MIZ043>046-050>051-056>058-064>065-071>073-077>080-230900-
SOUTHWEST LOWER MICHIGAN

CITY           SKY/WX    TMP DP  RH WIND       PRES   REMARKS
BATTLE CREEK   CLOUDY    51  44  77 S14       29.91S
BENTON HARBOR  CLOUDY    49  45  86 S8        29.87F
BIG RAPIDS     CLOUDY    44  44 100 S6        29.82S FOG
COLDWATER      RAIN      50  46  85 SW12G20   29.93S
FREMONT        CLOUDY    44  42  94 SW7       29.83S FOG
HOLLAND        CLOUDY    53  46  77 S18G24    29.86F
GRAND RAPIDS   CLOUDY    46  43  89 S10       29.87F
IONIA          CLOUDY    47  44  89 SW14G22   29.87S
KALAMAZOO      RAIN      48  44  86 S9        29.90S FOG
LUDINGTON      CLOUDY    49  47  92 S5        29.79S
MARSHALL       CLOUDY    49  44  81 SW12G17   29.91S
MOUNT PLEASANT CLOUDY    46  45  97 S6        29.85S FOG
MUSKEGON       CLOUDY    50  44  80 S16G28    29.82F
SOUTH HAVEN    CLOUDY    52  46  81 SW8       29.87F
$$
MIZ016>042-230900-
NORTHERN LOWER MICHIGAN

CITY           SKY/WX    TMP DP  RH WIND       PRES   REMARKS
ALPENA         FOG       35  35 100 S6        29.85S VSB 3/4 WCI  30
BEAVER ISLAND  CLOUDY    40  40  98 CALM      29.77S FOG
BELLAIRE       FOG       37  36  96 CALM      29.80S VSB 1
CADILLAC       FOG       40  40 100 S5        29.80R VSB 1/4
CHARLEVOIX     CLOUDY    39  39 100 S3        29.81R FOG
FRANKFORT      CLOUDY    45  44  97 S7        29.77S FOG
GAYLORD        FOG       36  36 100 S6        29.80S VSB 1   WCI  31
GRAYLING       FOG       36  36 100 SE3       29.82S VSB 1/4
HARBOR SPRINGS CLOUDY    39  38  99 CALM      29.79S FOG
HOUGHTON LAKE  FOG       41  40  96 S3        29.83S VSB 1/4
MANISTEE       CLOUDY    45  43  93 S6        29.79S
OSCODA         FOG       40  40 100 S3        29.86S VSB 1/2
PELLSTON       CLOUDY    39  38  96 SE5       29.79F FOG
ROGERS CITY    MOCLDY    37  37 100 CALM      29.84F FOG
TRAVERSE CITY  CLOUDY    42  40  92 CALM      29.78S FOG
$$
MIZ007>008-015-230900-
EASTERN UPPER MICHIGAN

CITY           SKY/WX    TMP DP  RH WIND       PRES   REMARKS
KINROSS        CLOUDY    36  36 100 SE6       29.79S VSB 1/4 WCI  31
MACKINAC ISLAN FOG       39  39 100 SE5       29.78F VSB 3/4
NEWBERRY       FOG       34  34 100 SE6       29.74S VSB 1/2 WCI  29
S. S. MARIE    CLOUDY    34  32  92 SE3       29.78F FOG
$$
MIZ004>006-011>014-085-230900-
CENTRAL UPPER MICHIGAN

CITY           SKY/WX    TMP DP  RH WIND       PRES   REMARKS
MANISTIQUE     CLOUDY    37  37  99 S3        29.73F FOG
ESCANABA       CLOUDY    37  36  93 SE7       29.70F VSB 1/4 WCI  32
MENOMINEE      CLOUDY    39  37  93 S7        29.69F VSB 1/2 WCI  34
SAWYER-GWINN   FOG       34  33  96 S10       29.66S VSB 1/2 WCI  26
$$
MIZ001>003-009>011-084-230900-
WESTERN UPPER MICHIGAN

CITY           SKY/WX    TMP DP  RH WIND       PRES   REMARKS
IRON MOUNTAIN  FOG       34  34 100 SE5       29.66F VSB 1/4 WCI  30
HOUGHTON       CLOUDY    34  30  85 SE5       29.61F WCI  30
COPPER HARBOR    N/A     37  32  82 S5        29.64R WCI  33
IRONWOOD       CLOUDY    39  37  93 SW7       29.52F WCI  34
$$

ABBREVIATIONS USED IN REMARKS
   TC - TEMPERATURE IN CELSIUS
  WCI - WIND CHILL INDEX
   HX - HEAT INDEX
  VSB - VISIBILITY



USA.gov is the U.S. government's official web portal to all federal, state and local government web resources and services.